Location: Burla
(50.9568°N, 10.4983°E)
Time: 10:03:44
(UTC+00:00)

Cosmos 2074 Rocket - Pass Details

Date: 18 January 2026
Orbit: 965 x 986 km, 82.9° (Epoch: 18 February)

Event Time Altitude Azimuth Distance (km) Brightness Sun altitude
Rises 05:14:46 0° 205° (SSW) 3,684 6.9 -17.9°
Reaches altitude 10° 05:17:21 10° 210° (SSW) 2,740 6.2 -17.5°
Maximum altitude 05:23:28 52° 286° (WNW) 1,215 4.1 -16.6°
Drops below altitude 10° 05:29:37 10° 3° (N) 2,750 6.2 -15.6°
Sets 05:32:14 0° 8° (N) 3,700 7.0 -15.2°
